Regional Weather Roundup
Issued by NWS Cleveland, OH

Home | Current Version | Previous Version | Text Only | Print | Product List | Glossary On
Versions: 1 2 3 4 5 6 7 8 9 10 11 12 13 14 15 16 17 18 19 20 21 22 23 24 25 26 27 28 29 30 31 32 33 34 35 36 37 38 39 40 41 42 43 44 45 46 47 48 49 50
000
ASUS41 KCLE 310410
RWRCLE
OHIO REGIONAL WEATHER ROUNDUP
NATIONAL WEATHER SERVICE CLEVELAND, OH
1200 AM EDT MON AUG 31 2015

NOTE: "FAIR" INDICATES FEW OR NO CLOUDS BELOW 12,000 FEET WITH NO
SIGNIFICANT WEATHER AND/OR OBSTRUCTIONS TO VISIBILITY.

OHZ001>008-015>018-024>027-034-035-043-044-310500-
   NORTHWEST OHIO

CITY           SKY/WX    TMP DP  RH WIND       PRES   REMARKS
DEFIANCE       CLEAR     71  68  90 CALM      30.05S
FINDLAY        CLEAR     71  66  84 CALM      30.05S
TOLEDO EXPRESS CLEAR     70  67  90 NW3       30.04S
TOLEDO EXEC    CLEAR     71  65  81 W3        30.05S
LIMA           CLEAR     71  65  81 S7        30.06F
$$

OHZ009>014-019>023-028>033-038-089-310500-
   NORTHEAST OHIO

CITY           SKY/WX    TMP DP  RH WIND       PRES   REMARKS
CLE-HOPKINS    PTCLDY    73  64  73 S7        30.08R
CLE-LAKEFRONT  CLEAR     77  63  61 S8        30.04R
CUY CO. ARPT   NOT AVBL
LORAIN-ELYRIA  PTCLDY    70  64  81 SW5       30.07S
ASHTABULA      CLEAR     68  67  96 S6        30.07S
AKRON-CANTON   CLOUDY    72  65  78 SW6       30.10S
WOOSTER        MOCLDY    69  64  84 S3        30.10S
MANSFIELD      MOCLDY    70  65  84 SW5       30.10R
YOUNGSTOWN     PTCLDY    71  66  84 S6        30.09S
$$

OHZ042-051>053-060>062-070>072-077>081-310500-
  SOUTHWEST OHIO

CITY           SKY/WX    TMP DP  RH WIND       PRES   REMARKS
CINC-COVINGTON MOCLDY    72  67  84 S6        30.09S
CINC-LUNKEN    CLEAR     70  68  93 CALM      30.08F
HAMILTON       CLEAR     67  65  93 CALM      30.09S FOG
DAYTON         PTCLDY    70  65  84 S6        30.10R
WRIGHT-PAT AFB PTCLDY    69  65  87 S5        30.08S
DAYTON GENERAL CLEAR     69  64  84 S5        30.08S
WILMINGTON     CLEAR     68  64  87 CALM      30.09S
$$

OHZ036-037-039>041-045>050-054>059-063>069-073>076-082>088-310500-
  CENTRAL AND SOUTHEAST OHIO

CITY           SKY/WX    TMP DP  RH WIND       PRES   REMARKS
COLUMBUS       MOCLDY    73  66  78 S5        30.08S
OSU AIRPORT    CLEAR     72  64  76 SW5       30.09S
BOLTON FIELD   PTCLDY    67  66  97 CALM      30.10R
RICKENBACK AFB PTCLDY    70  65  83 S3        30.08S
NEWARK         MOCLDY    69  66  90 CALM      30.09S
MARION         PTCLDY    70  67  90 S3        30.08F
LANCASTER      PTCLDY    68  65  90 CALM      30.10S
ZANESVILLE     MOCLDY    70  65  84 CALM      30.10S
NEW PHILLY     MOCLDY    69  66  90 S3        30.11R
$$


USA.gov is the U.S. government's official web portal to all federal, state and local government web resources and services.